DELTA 1 DEB, 21473

Orbit data source: Space-Track

DELTA 1 DEB, 21473 is space debris in SSO originally from a launch on Thu, 12 Jun 1975 UTC launched from the Air Force Western Test Range (AFWTR). Debris objects in space refer to the collection of defunct objects orbiting the Earth. Examples of debris include non-operational satellites, rocket bodies, and fragments generated from explosions, collisions, or faulty payload assembly.

Loading next visibility...
Identifier
21473, 1975-052FH
Orbit
SSO
Country
Flag of USUS
Related business
Manufacturer
Unknown
Mission
Spacecraft
Bus & Motor
Unknown
Mass
Unknown
Launch date (UTC)
1975-06-12 (51 years ago)
Launch vehicle
Unknown
Launch site
Air Force Western Test Range (AFWTR)
Object type
Payload
Rocket body
Debris
Shape & HBR
Unknown shape, 0.1 m
Radar Cross Section
Small (<0.1 m²)

Expand to show TLE details & history
Last TLE update: 8 hours ago

TLE from 8 hours ago
0 DELTA 1 DEB
1 21473U 75052FH  26127.09290573  .00000585  00000-0  68257-3 0  9998
2 21473  99.9243 317.2110 0240480  70.4514  51.4902 13.61284327727676
Epoch: 2026-05-07T02:13Z
TLE epoch observation values (Epoch: 2026-05-07T02:13:47.055Z)
Latitude
54.71729°
Longitude
-106.93968°
Altitude
931.692 km
Speed
7.445 km/s
True Right ascension
10h 05m 48s
True Declination
54° 33' 32"
Sunlit
Object was in daylight at epoch
Visualization orbit readout
Latitude
Unknown
Longitude
Unknown
Altitude
Unknown
Speed
Unknown
Apparent Right ascension
Unknown
Apparent Declination
Unknown
Sunlit
N/A
Visualization observer readout
Local Sidereal Time
18:16:13
Azimuth
Unknown
Elevation
Unknown
Doppler factor
Unknown
Orbital elements
Apogee altitude
1,206.434 km
Perigee altitude
850.213 km
Semi-major axis
7,406.461 km
Eccentricity
0.02405
Inclination
99.9243°
RAAN
317.211°
Arg. of periapsis
70.4514°
True anomaly
53.6871°
Mean anomaly
51.4902°
Eccentric anomaly
52.58456°
Mean motion
3.40508 °/min
Orbital period
105.72 mins
BSTAR
0.00068257
Loading maneuver chart data...
Computing Atmospheric mass density...
Loading historical data...
Loading historical data...
Loading historical data...
Loading historical data...
Loading historical data...
Loading historical data...
Loading historical data...

Documentation

Showing up to 5 results
|